owner,sensor,date,latitude,longitude,air_pressure(mBar),qcFlag 
TABS,ioos:station:wmo:42047:1,2019-04-01T03:00:00Z,27.8966,-93.5973,1022.44,1111122 
TABS,ioos:station:wmo:42047:1,2019-04-01T04:00:00Z,27.8966,-93.5973,1023.01,1111122 
TABS,ioos:station:wmo:42047:1,2019-04-01T06:00:00Z,27.8966,-93.5973,1022.06,1111122 
TABS,ioos:station:wmo:42047:1,2019-04-01T07:00:00Z,27.8966,-93.5973,1021.26,1111122 
TABS,ioos:station:wmo:42047:1,2019-04-01T08:00:00Z,27.8966,-93.5973,1020.38,1111122 
TABS,ioos:station:wmo:42047:1,2019-04-01T09:00:00Z,27.8966,-93.5973,1020.0,1111122 
TABS,ioos:station:wmo:42047:1,2019-04-01T10:00:00Z,27.8966,-93.5973,1019.95,1111122 
TABS,ioos:station:wmo:42047:1,2019-04-01T11:00:00Z,27.8966,-93.5973,1020.11,1111122 
TABS,ioos:station:wmo:42047:1,2019-04-01T12:00:00Z,27.8966,-93.5973,1021.25,1111122 
TABS,ioos:station:wmo:42047:1,2019-04-01T13:00:00Z,27.8966,-93.5973,1021.58,1111122 
TABS,ioos:station:wmo:42047:1,2019-04-01T14:00:00Z,27.8966,-93.5973,1022.55,1111122 
TABS,ioos:station:wmo:42047:1,2019-04-01T15:00:00Z,27.8966,-93.5973,1021.8,1111122 
TABS,ioos:station:wmo:42047:1,2019-04-01T16:00:00Z,27.8966,-93.5973,1022.41,1111122 
TABS,ioos:station:wmo:42047:1,2019-04-01T17:00:00Z,27.8966,-93.5973,1021.99,1111122 
TABS,ioos:station:wmo:42047:1,2019-04-01T18:00:00Z,27.8966,-93.5973,1021.8,1111122 
TABS,ioos:station:wmo:42047:1,2019-04-01T19:00:00Z,27.8966,-93.5973,1021.34,1111122 
TABS,ioos:station:wmo:42047:1,2019-04-01T20:00:00Z,27.8966,-93.5973,1020.71,1111122 
TABS,ioos:station:wmo:42047:1,2019-04-01T21:00:00Z,27.8966,-93.5973,1020.44,1111122 
TABS,ioos:station:wmo:42047:1,2019-04-01T22:00:00Z,27.8966,-93.5973,1020.66,1111122 
TABS,ioos:station:wmo:42047:1,2019-04-01T23:00:00Z,27.8966,-93.5973,1020.36,1111122 
TABS,ioos:station:wmo:42047:1,2019-04-01T23:30:00Z,27.8966,-93.5973,1020.7,1111122 
TABS,ioos:station:wmo:42047:1,2019-04-02T05:30:00Z,27.8966,-93.5973,1022.89,1111122 
TABS,ioos:station:wmo:42047:1,2019-04-02T06:00:00Z,27.8966,-93.5973,1022.85,1111122 
TABS,ioos:station:wmo:42047:1,2019-04-02T07:00:00Z,27.8966,-93.5973,1022.59,1111122 
TABS,ioos:station:wmo:42047:1,2019-04-02T08:00:00Z,27.8966,-93.5973,1022.0,1111122 
TABS,ioos:station:wmo:42047:1,2019-04-02T09:00:00Z,27.8966,-93.5973,1021.62,1111122 
TABS,ioos:station:wmo:42047:1,2019-04-02T10:00:00Z,27.8966,-93.5973,1021.8,1111122 
TABS,ioos:station:wmo:42047:1,2019-04-02T11:00:00Z,27.8966,-93.5973,1022.14,1111122 
TABS,ioos:station:wmo:42047:1,2019-04-02T12:00:00Z,27.8966,-93.5973,1022.61,1111122 
TABS,ioos:station:wmo:42047:1,2019-04-02T13:00:00Z,27.8966,-93.5973,1023.03,1111122 
TABS,ioos:station:wmo:42047:1,2019-04-02T14:00:00Z,27.8966,-93.5973,1023.58,1111122 
TABS,ioos:station:wmo:42047:1,2019-04-02T15:00:00Z,27.8966,-93.5973,1024.35,1111122 
TABS,ioos:station:wmo:42047:1,2019-04-02T16:00:00Z,27.8966,-93.5973,1024.28,1111122 
TABS,ioos:station:wmo:42047:1,2019-04-02T17:00:00Z,27.8966,-93.5973,1024.04,1111122 
TABS,ioos:station:wmo:42047:1,2019-04-02T18:00:00Z,27.8966,-93.5973,1023.39,1111122 
TABS,ioos:station:wmo:42047:1,2019-04-02T18:30:00Z,27.8966,-93.5973,1023.11,1111122 
TABS,ioos:station:wmo:42047:1,2019-04-02T20:00:00Z,27.8966,-93.5973,1022.07,1111122 
TABS,ioos:station:wmo:42047:1,2019-04-02T20:30:00Z,27.8966,-93.5973,1021.74,1111122 
TABS,ioos:station:wmo:42047:1,2019-04-02T22:00:00Z,27.8966,-93.5973,1021.3,1111122 
TABS,ioos:station:wmo:42047:1,2019-04-02T23:00:00Z,27.8966,-93.5973,1021.19,1111122 
TABS,ioos:station:wmo:42047:1,2019-04-02T23:30:00Z,27.8966,-93.5973,1021.05,1111122 
TABS,ioos:station:wmo:42047:1,2019-04-03T04:00:00Z,27.8966,-93.5973,1022.89,1111122 
TABS,ioos:station:wmo:42047:1,2019-04-03T05:00:00Z,27.8966,-93.5973,1022.46,1111122 
TABS,ioos:station:wmo:42047:1,2019-04-03T06:00:00Z,27.8966,-93.5973,1022.15,1111122 
TABS,ioos:station:wmo:42047:1,2019-04-03T07:00:00Z,27.8966,-93.5973,1021.26,1111122 
TABS,ioos:station:wmo:42047:1,2019-04-03T08:00:00Z,27.8966,-93.5973,1020.96,1111122 
TABS,ioos:station:wmo:42047:1,2019-04-03T09:00:00Z,27.8966,-93.5973,1020.55,1111122 
TABS,ioos:station:wmo:42047:1,2019-04-03T10:00:00Z,27.8966,-93.5973,1020.62,1111122 
TABS,ioos:station:wmo:42047:1,2019-04-03T11:00:00Z,27.8966,-93.5973,1020.79,1111122 
TABS,ioos:station:wmo:42047:1,2019-04-03T12:00:00Z,27.8966,-93.5973,1021.34,1111122 
TABS,ioos:station:wmo:42047:1,2019-04-03T13:00:00Z,27.8966,-93.5973,1022.01,1111122 
TABS,ioos:station:wmo:42047:1,2019-04-03T13:30:00Z,27.8966,-93.5973,1022.08,1111122 
TABS,ioos:station:wmo:42047:1,2019-04-03T15:00:00Z,27.8966,-93.5973,1022.57,1111122 
TABS,ioos:station:wmo:42047:1,2019-04-03T16:00:00Z,27.8966,-93.5973,1023.0,1111122 
TABS,ioos:station:wmo:42047:1,2019-04-03T17:00:00Z,27.8966,-93.5973,1022.66,1111122 
TABS,ioos:station:wmo:42047:1,2019-04-03T18:00:00Z,27.8966,-93.5973,1021.99,1111122 
TABS,ioos:station:wmo:42047:1,2019-04-03T19:00:00Z,27.8966,-93.5973,1021.23,1111122 
TABS,ioos:station:wmo:42047:1,2019-04-03T20:00:00Z,27.8966,-93.5973,1020.21,1111122 
TABS,ioos:station:wmo:42047:1,2019-04-03T21:00:00Z,27.8966,-93.5973,1019.45,1111122 
TABS,ioos:station:wmo:42047:1,2019-04-03T22:00:00Z,27.8966,-93.5973,1017.75,1111122 
TABS,ioos:station:wmo:42047:1,2019-04-03T23:00:00Z,27.8966,-93.5973,1019.6,1111122 
TABS,ioos:station:wmo:42047:1,2019-04-03T23:30:00Z,27.8966,-93.5973,1017.41,1111122 
TABS,ioos:station:wmo:42047:1,2019-04-04T04:00:00Z,27.8966,-93.5973,1018.9,1111122 
TABS,ioos:station:wmo:42047:1,2019-04-04T05:00:00Z,27.8966,-93.5973,1018.2,1111122 
TABS,ioos:station:wmo:42047:1,2019-04-04T06:00:00Z,27.8966,-93.5973,1017.94,1111122 
TABS,ioos:station:wmo:42047:1,2019-04-04T07:00:00Z,27.8966,-93.5973,1017.95,1111122 
TABS,ioos:station:wmo:42047:1,2019-04-04T08:00:00Z,27.8966,-93.5973,1017.19,1111122 
TABS,ioos:station:wmo:42047:1,2019-04-04T09:00:00Z,27.8966,-93.5973,1017.15,1111122 
TABS,ioos:station:wmo:42047:1,2019-04-04T10:00:00Z,27.8966,-93.5973,1016.89,1111122 
TABS,ioos:station:wmo:42047:1,2019-04-04T11:00:00Z,27.8966,-93.5973,1017.13,1111122 
TABS,ioos:station:wmo:42047:1,2019-04-04T12:00:00Z,27.8966,-93.5973,1016.79,1111122 
TABS,ioos:station:wmo:42047:1,2019-04-04T13:00:00Z,27.8966,-93.5973,1017.11,1111122 
TABS,ioos:station:wmo:42047:1,2019-04-04T14:00:00Z,27.8966,-93.5973,1017.69,1111122 
TABS,ioos:station:wmo:42047:1,2019-04-04T15:00:00Z,27.8966,-93.5973,1017.61,1111122 
TABS,ioos:station:wmo:42047:1,2019-04-04T16:00:00Z,27.8966,-93.5973,1017.37,1111122 
TABS,ioos:station:wmo:42047:1,2019-04-04T17:00:00Z,27.8966,-93.5973,1016.67,1111122 
TABS,ioos:station:wmo:42047:1,2019-04-04T18:00:00Z,27.8966,-93.5973,1016.52,1111122 
TABS,ioos:station:wmo:42047:1,2019-04-04T19:00:00Z,27.8966,-93.5973,1016.64,1111122 
TABS,ioos:station:wmo:42047:1,2019-04-04T20:00:00Z,27.8966,-93.5973,1015.81,1111122 
TABS,ioos:station:wmo:42047:1,2019-04-04T21:00:00Z,27.8966,-93.5973,1015.38,1111122 
TABS,ioos:station:wmo:42047:1,2019-04-04T23:00:00Z,27.8966,-93.5973,1014.58,1111122 
TABS,ioos:station:wmo:42047:1,2019-04-04T23:30:00Z,27.8966,-93.5973,1014.41,1111122 
TABS,ioos:station:wmo:42047:1,2019-04-05T04:00:00Z,27.8966,-93.5973,1015.48,1111122 
TABS,ioos:station:wmo:42047:1,2019-04-05T05:00:00Z,27.8966,-93.5973,1015.59,1111122 
TABS,ioos:station:wmo:42047:1,2019-04-05T05:30:00Z,27.8966,-93.5973,1015.42,1111122 
TABS,ioos:station:wmo:42047:1,2019-04-05T08:00:00Z,27.8966,-93.5973,1014.93,1111122 
TABS,ioos:station:wmo:42047:1,2019-04-05T09:00:00Z,27.8966,-93.5973,1014.42,1111122 
TABS,ioos:station:wmo:42047:1,2019-04-05T11:00:00Z,27.8966,-93.5973,1014.07,1111122 
TABS,ioos:station:wmo:42047:1,2019-04-05T12:00:00Z,27.8966,-93.5973,1014.83,1111122 
TABS,ioos:station:wmo:42047:1,2019-04-05T13:00:00Z,27.8966,-93.5973,1015.26,1111122 
TABS,ioos:station:wmo:42047:1,2019-04-05T14:00:00Z,27.8966,-93.5973,1015.72,1111122 
TABS,ioos:station:wmo:42047:1,2019-04-05T15:00:00Z,27.8966,-93.5973,1015.96,1111122 
TABS,ioos:station:wmo:42047:1,2019-04-05T16:00:00Z,27.8966,-93.5973,1016.0,1111122 
TABS,ioos:station:wmo:42047:1,2019-04-05T17:00:00Z,27.8966,-93.5973,1016.06,1111122 
TABS,ioos:station:wmo:42047:1,2019-04-05T18:00:00Z,27.8966,-93.5973,1015.28,1111122 
TABS,ioos:station:wmo:42047:1,2019-04-05T19:00:00Z,27.8966,-93.5973,1014.94,1111122 
TABS,ioos:station:wmo:42047:1,2019-04-05T19:30:00Z,27.8966,-93.5973,1014.51,1111122 
TABS,ioos:station:wmo:42047:1,2019-04-05T21:00:00Z,27.8966,-93.5973,1013.83,1111122 
TABS,ioos:station:wmo:42047:1,2019-04-05T22:00:00Z,27.8966,-93.5973,1013.49,1111122 
TABS,ioos:station:wmo:42047:1,2019-04-05T23:00:00Z,27.8966,-93.5973,1013.64,1111122 
TABS,ioos:station:wmo:42047:1,2019-04-05T23:30:00Z,27.8966,-93.5973,1013.57,1111122 
TABS,ioos:station:wmo:42047:1,2019-04-06T05:00:00Z,27.8966,-93.5973,1014.19,1111122 
TABS,ioos:station:wmo:42047:1,2019-04-06T06:00:00Z,27.8966,-93.5973,1013.73,1111122 
TABS,ioos:station:wmo:42047:1,2019-04-06T07:00:00Z,27.8966,-93.5973,1013.43,1111122 
TABS,ioos:station:wmo:42047:1,2019-04-06T08:00:00Z,27.8966,-93.5973,1012.66,1111122 
TABS,ioos:station:wmo:42047:1,2019-04-06T09:00:00Z,27.8966,-93.5973,1012.71,1111122 
TABS,ioos:station:wmo:42047:1,2019-04-06T10:00:00Z,27.8966,-93.5973,1012.96,1111122 
TABS,ioos:station:wmo:42047:1,2019-04-06T11:00:00Z,27.8966,-93.5973,1013.2,1111122 
TABS,ioos:station:wmo:42047:1,2019-04-06T12:00:00Z,27.8966,-93.5973,1013.61,1111122 
TABS,ioos:station:wmo:42047:1,2019-04-06T13:00:00Z,27.8966,-93.5973,1013.99,1111122 
TABS,ioos:station:wmo:42047:1,2019-04-06T14:00:00Z,27.8966,-93.5973,1013.89,1111122 
TABS,ioos:station:wmo:42047:1,2019-04-06T15:00:00Z,27.8966,-93.5973,1013.97,1111122 
TABS,ioos:station:wmo:42047:1,2019-04-06T16:00:00Z,27.8966,-93.5973,1013.85,1111122 
TABS,ioos:station:wmo:42047:1,2019-04-06T17:00:00Z,27.8966,-93.5973,1014.72,1111122 
TABS,ioos:station:wmo:42047:1,2019-04-06T17:30:00Z,27.8966,-93.5973,1014.04,1111122 
TABS,ioos:station:wmo:42047:1,2019-04-06T19:00:00Z,27.8966,-93.5973,1013.23,1111122 
TABS,ioos:station:wmo:42047:1,2019-04-06T19:30:00Z,27.8966,-93.5973,1012.91,1111122 
TABS,ioos:station:wmo:42047:1,2019-04-06T21:00:00Z,27.8966,-93.5973,1011.83,1111122 
TABS,ioos:station:wmo:42047:1,2019-04-06T22:00:00Z,27.8966,-93.5973,1011.62,1111122 
TABS,ioos:station:wmo:42047:1,2019-04-06T23:00:00Z,27.8966,-93.5973,1011.61,1111122 
TABS,ioos:station:wmo:42047:1,2019-04-06T23:30:00Z,27.8966,-93.5973,1011.81,1111122 
TABS,ioos:station:wmo:42047:1,2019-04-07T04:00:00Z,27.8966,-93.5973,1014.11,1111122 
TABS,ioos:station:wmo:42047:1,2019-04-07T05:00:00Z,27.8966,-93.5973,1014.19,1111122 
TABS,ioos:station:wmo:42047:1,2019-04-07T06:00:00Z,27.8966,-93.5973,1014.01,1111122 
TABS,ioos:station:wmo:42047:1,2019-04-07T07:00:00Z,27.8966,-93.5973,1013.67,1111122 
TABS,ioos:station:wmo:42047:1,2019-04-07T08:00:00Z,27.8966,-93.5973,1012.38,1111122 
TABS,ioos:station:wmo:42047:1,2019-04-07T09:00:00Z,27.8966,-93.5973,1012.19,1111122 
TABS,ioos:station:wmo:42047:1,2019-04-07T10:00:00Z,27.8966,-93.5973,1012.35,1111122 
TABS,ioos:station:wmo:42047:1,2019-04-07T11:00:00Z,27.8966,-93.5973,1012.99,1111122 
TABS,ioos:station:wmo:42047:1,2019-04-07T12:00:00Z,27.8966,-93.5973,1013.89,1111122 
TABS,ioos:station:wmo:42047:1,2019-04-07T13:00:00Z,27.8966,-93.5973,1012.72,1111122 
TABS,ioos:station:wmo:42047:1,2019-04-07T14:00:00Z,27.8966,-93.5973,1012.71,1111122 
TABS,ioos:station:wmo:42047:1,2019-04-07T15:00:00Z,27.8966,-93.5973,1012.98,1111122 
TABS,ioos:station:wmo:42047:1,2019-04-07T16:00:00Z,27.8966,-93.5973,1013.44,1111122 
TABS,ioos:station:wmo:42047:1,2019-04-07T17:00:00Z,27.8966,-93.5973,1012.36,1111122 
TABS,ioos:station:wmo:42047:1,2019-04-07T18:00:00Z,27.8966,-93.5973,1010.08,1111122 
TABS,ioos:station:wmo:42047:1,2019-04-07T19:00:00Z,27.8966,-93.5973,1010.34,1111122 
TABS,ioos:station:wmo:42047:1,2019-04-07T20:00:00Z,27.8966,-93.5973,1014.38,1111122 
TABS,ioos:station:wmo:42047:1,2019-04-07T21:00:00Z,27.8966,-93.5973,1012.77,1111122 
TABS,ioos:station:wmo:42047:1,2019-04-07T22:00:00Z,27.8966,-93.5973,1011.3,1111122 
TABS,ioos:station:wmo:42047:1,2019-04-07T23:00:00Z,27.8966,-93.5973,1011.83,1111122 
TABS,ioos:station:wmo:42047:1,2019-04-07T23:30:00Z,27.8966,-93.5973,1011.43,1111122 
TABS,ioos:station:wmo:42047:1,2019-04-08T04:00:00Z,27.8966,-93.5973,1012.34,1111122 
TABS,ioos:station:wmo:42047:1,2019-04-08T05:00:00Z,27.8966,-93.5973,1012.32,1111122 
TABS,ioos:station:wmo:42047:1,2019-04-08T06:00:00Z,27.8966,-93.5973,1011.26,1111122 
TABS,ioos:station:wmo:42047:1,2019-04-08T07:00:00Z,27.8966,-93.5973,1010.45,1111122 
TABS,ioos:station:wmo:42047:1,2019-04-08T08:00:00Z,27.8966,-93.5973,1010.21,1111122 
TABS,ioos:station:wmo:42047:1,2019-04-08T09:00:00Z,27.8966,-93.5973,1010.04,1111122 
TABS,ioos:station:wmo:42047:1,2019-04-08T10:00:00Z,27.8966,-93.5973,1009.77,1111122 
TABS,ioos:station:wmo:42047:1,2019-04-08T11:00:00Z,27.8966,-93.5973,1009.6,1111122 
TABS,ioos:station:wmo:42047:1,2019-04-08T12:00:00Z,27.8966,-93.5973,1011.14,1111122 
TABS,ioos:station:wmo:42047:1,2019-04-08T13:00:00Z,27.8966,-93.5973,1011.91,1111122 
TABS,ioos:station:wmo:42047:1,2019-04-08T14:00:00Z,27.8966,-93.5973,1012.92,1111122 
TABS,ioos:station:wmo:42047:1,2019-04-08T15:00:00Z,27.8966,-93.5973,1013.54,1111122 
TABS,ioos:station:wmo:42047:1,2019-04-08T16:00:00Z,27.8966,-93.5973,1013.89,1111122 
TABS,ioos:station:wmo:42047:1,2019-04-08T17:00:00Z,27.8966,-93.5973,1013.87,1111122 
TABS,ioos:station:wmo:42047:1,2019-04-08T18:00:00Z,27.8966,-93.5973,1014.38,1111122 
TABS,ioos:station:wmo:42047:1,2019-04-08T19:00:00Z,27.8966,-93.5973,1013.83,1111122 
TABS,ioos:station:wmo:42047:1,2019-04-08T20:00:00Z,27.8966,-93.5973,1012.67,1111122 
TABS,ioos:station:wmo:42047:1,2019-04-08T21:00:00Z,27.8966,-93.5973,1011.9,1111122 
TABS,ioos:station:wmo:42047:1,2019-04-08T22:00:00Z,27.8966,-93.5973,1011.91,1111122 
TABS,ioos:station:wmo:42047:1,2019-04-08T23:00:00Z,27.8966,-93.5973,1012.23,1111122 
TABS,ioos:station:wmo:42047:1,2019-04-08T23:30:00Z,27.8966,-93.5973,1012.21,1111122 
TABS,ioos:station:wmo:42047:1,2019-04-09T04:00:00Z,27.8966,-93.5973,1014.09,1111122 
TABS,ioos:station:wmo:42047:1,2019-04-09T05:00:00Z,27.8966,-93.5973,1013.87,1111122 
TABS,ioos:station:wmo:42047:1,2019-04-09T06:00:00Z,27.8966,-93.5973,1014.38,1111122 
TABS,ioos:station:wmo:42047:1,2019-04-09T07:00:00Z,27.8966,-93.5973,1014.02,1111122 
TABS,ioos:station:wmo:42047:1,2019-04-09T08:00:00Z,27.8966,-93.5973,1013.52,1111122 
TABS,ioos:station:wmo:42047:1,2019-04-09T09:00:00Z,27.8966,-93.5973,1013.4,1111122 
TABS,ioos:station:wmo:42047:1,2019-04-09T10:00:00Z,27.8966,-93.5973,1013.06,1111122 
TABS,ioos:station:wmo:42047:1,2019-04-09T11:00:00Z,27.8966,-93.5973,1013.59,1111122 
TABS,ioos:station:wmo:42047:1,2019-04-09T12:00:00Z,27.8966,-93.5973,1014.13,1111122 
TABS,ioos:station:wmo:42047:1,2019-04-09T13:00:00Z,27.8966,-93.5973,1014.52,1111122 
TABS,ioos:station:wmo:42047:1,2019-04-09T14:00:00Z,27.8966,-93.5973,1014.62,1111122 
TABS,ioos:station:wmo:42047:1,2019-04-09T15:00:00Z,27.8966,-93.5973,1014.94,1111122 
TABS,ioos:station:wmo:42047:1,2019-04-09T16:00:00Z,27.8966,-93.5973,1014.93,1111122 
TABS,ioos:station:wmo:42047:1,2019-04-09T17:00:00Z,27.8966,-93.5973,1014.82,1111122 
TABS,ioos:station:wmo:42047:1,2019-04-09T18:00:00Z,27.8966,-93.5973,1013.88,1111122 
TABS,ioos:station:wmo:42047:1,2019-04-09T19:00:00Z,27.8966,-93.5973,1013.07,1111122 
TABS,ioos:station:wmo:42047:1,2019-04-09T20:00:00Z,27.8966,-93.5973,1012.6,1111122 
TABS,ioos:station:wmo:42047:1,2019-04-09T21:00:00Z,27.8966,-93.5973,1012.11,1111122 
TABS,ioos:station:wmo:42047:1,2019-04-09T22:00:00Z,27.8966,-93.5973,1011.96,1111122 
TABS,ioos:station:wmo:42047:1,2019-04-09T22:30:00Z,27.8966,-93.5973,1011.71,1111122 
TABS,ioos:station:wmo:42047:1,2019-04-09T23:30:00Z,27.8966,-93.5973,1011.33,1111122 
TABS,ioos:station:wmo:42047:1,2019-04-10T04:00:00Z,27.8966,-93.5973,1012.85,1111122 
TABS,ioos:station:wmo:42047:1,2019-04-10T05:00:00Z,27.8966,-93.5973,1012.55,1111122 
TABS,ioos:station:wmo:42047:1,2019-04-10T06:00:00Z,27.8966,-93.5973,1012.24,1111122 
TABS,ioos:station:wmo:42047:1,2019-04-10T07:00:00Z,27.8966,-93.5973,1011.68,1111122 
TABS,ioos:station:wmo:42047:1,2019-04-10T08:00:00Z,27.8966,-93.5973,1011.06,1111122 
TABS,ioos:station:wmo:42047:1,2019-04-10T09:00:00Z,27.8966,-93.5973,1010.67,1111122 
TABS,ioos:station:wmo:42047:1,2019-04-10T10:00:00Z,27.8966,-93.5973,1010.73,1111122 
TABS,ioos:station:wmo:42047:1,2019-04-10T11:00:00Z,27.8966,-93.5973,1010.84,1111122 
TABS,ioos:station:wmo:42047:1,2019-04-10T12:00:00Z,27.8966,-93.5973,1011.28,1111122 
TABS,ioos:station:wmo:42047:1,2019-04-10T13:00:00Z,27.8966,-93.5973,1011.57,1111122 
TABS,ioos:station:wmo:42047:1,2019-04-10T14:00:00Z,27.8966,-93.5973,1011.87,1111122 
TABS,ioos:station:wmo:42047:1,2019-04-10T15:00:00Z,27.8966,-93.5973,1011.9,1111122 
TABS,ioos:station:wmo:42047:1,2019-04-10T16:00:00Z,27.8966,-93.5973,1011.8,1111122 
TABS,ioos:station:wmo:42047:1,2019-04-10T17:00:00Z,27.8966,-93.5973,1011.47,1111122 
TABS,ioos:station:wmo:42047:1,2019-04-10T17:30:00Z,27.8966,-93.5973,1011.18,1111122 
TABS,ioos:station:wmo:42047:1,2019-04-10T19:00:00Z,27.8966,-93.5973,1010.31,1111122 
TABS,ioos:station:wmo:42047:1,2019-04-10T19:30:00Z,27.8966,-93.5973,1010.06,1111122 
TABS,ioos:station:wmo:42047:1,2019-04-10T21:00:00Z,27.8966,-93.5973,1009.16,1111122 
TABS,ioos:station:wmo:42047:1,2019-04-10T22:00:00Z,27.8966,-93.5973,1008.55,1111122 
TABS,ioos:station:wmo:42047:1,2019-04-10T23:00:00Z,27.8966,-93.5973,1008.15,1111122 
TABS,ioos:station:wmo:42047:1,2019-04-10T23:30:00Z,27.8966,-93.5973,1007.72,1111122 
TABS,ioos:station:wmo:42047:1,2019-04-11T05:00:00Z,27.8966,-93.5973,1006.66,1111122 
TABS,ioos:station:wmo:42047:1,2019-04-11T06:00:00Z,27.8966,-93.5973,1006.11,1111122 
TABS,ioos:station:wmo:42047:1,2019-04-11T07:00:00Z,27.8966,-93.5973,1005.31,1111122 
TABS,ioos:station:wmo:42047:1,2019-04-11T08:00:00Z,27.8966,-93.5973,1004.54,1111122 
TABS,ioos:station:wmo:42047:1,2019-04-11T09:00:00Z,27.8966,-93.5973,1004.32,1111122 
TABS,ioos:station:wmo:42047:1,2019-04-11T10:00:00Z,27.8966,-93.5973,1004.0,1111122 
TABS,ioos:station:wmo:42047:1,2019-04-11T11:00:00Z,27.8966,-93.5973,1003.8,1111122 
TABS,ioos:station:wmo:42047:1,2019-04-11T12:00:00Z,27.8966,-93.5973,1004.82,1111122 
TABS,ioos:station:wmo:42047:1,2019-04-11T13:00:00Z,27.8966,-93.5973,1005.09,1111122 
TABS,ioos:station:wmo:42047:1,2019-04-11T14:00:00Z,27.8966,-93.5973,1004.89,1111122 
TABS,ioos:station:wmo:42047:1,2019-04-11T15:00:00Z,27.8966,-93.5973,1005.82,1111122 
TABS,ioos:station:wmo:42047:1,2019-04-11T16:00:00Z,27.8966,-93.5973,1005.82,1111122 
TABS,ioos:station:wmo:42047:1,2019-04-11T17:00:00Z,27.8966,-93.5973,1006.43,1111122 
TABS,ioos:station:wmo:42047:1,2019-04-11T18:00:00Z,27.8966,-93.5973,1005.84,1111122 
TABS,ioos:station:wmo:42047:1,2019-04-11T19:00:00Z,27.8966,-93.5973,1005.27,1111122 
TABS,ioos:station:wmo:42047:1,2019-04-11T20:00:00Z,27.8966,-93.5973,1005.05,1111122 
TABS,ioos:station:wmo:42047:1,2019-04-11T21:00:00Z,27.8966,-93.5973,1005.0,1111122 
TABS,ioos:station:wmo:42047:1,2019-04-11T22:00:00Z,27.8966,-93.5973,1005.56,1111122 
TABS,ioos:station:wmo:42047:1,2019-04-11T23:00:00Z,27.8966,-93.5973,1005.71,1111122 
TABS,ioos:station:wmo:42047:1,2019-04-11T23:30:00Z,27.8966,-93.5973,1006.22,1111122 
TABS,ioos:station:wmo:42047:1,2019-04-12T04:00:00Z,27.8966,-93.5973,1007.5,1111122 
TABS,ioos:station:wmo:42047:1,2019-04-12T05:00:00Z,27.8966,-93.5973,1007.43,1111122 
TABS,ioos:station:wmo:42047:1,2019-04-12T06:00:00Z,27.8966,-93.5973,1007.38,1111122 
TABS,ioos:station:wmo:42047:1,2019-04-12T07:00:00Z,27.8966,-93.5973,1008.09,1111122 
TABS,ioos:station:wmo:42047:1,2019-04-12T08:00:00Z,27.8966,-93.5973,1008.27,1111122 
TABS,ioos:station:wmo:42047:1,2019-04-12T09:00:00Z,27.8966,-93.5973,1007.91,1111122 
TABS,ioos:station:wmo:42047:1,2019-04-12T10:00:00Z,27.8966,-93.5973,1008.16,1111122 
TABS,ioos:station:wmo:42047:1,2019-04-12T11:00:00Z,27.8966,-93.5973,1008.68,1111122 
TABS,ioos:station:wmo:42047:1,2019-04-12T12:00:00Z,27.8966,-93.5973,1008.75,1111122 
TABS,ioos:station:wmo:42047:1,2019-04-12T13:00:00Z,27.8966,-93.5973,1009.61,1111122 
TABS,ioos:station:wmo:42047:1,2019-04-12T14:00:00Z,27.8966,-93.5973,1009.99,1111122 
TABS,ioos:station:wmo:42047:1,2019-04-12T15:00:00Z,27.8966,-93.5973,1009.93,1111122 
TABS,ioos:station:wmo:42047:1,2019-04-12T16:00:00Z,27.8966,-93.5973,1009.86,1111122 
TABS,ioos:station:wmo:42047:1,2019-04-12T17:00:00Z,27.8966,-93.5973,1010.35,1111122 
TABS,ioos:station:wmo:42047:1,2019-04-12T18:00:00Z,27.8966,-93.5973,1009.4,1111122 
TABS,ioos:station:wmo:42047:1,2019-04-12T19:00:00Z,27.8966,-93.5973,1008.93,1111122 
TABS,ioos:station:wmo:42047:1,2019-04-12T20:00:00Z,27.8966,-93.5973,1008.1,1111122 
TABS,ioos:station:wmo:42047:1,2019-04-12T21:00:00Z,27.8966,-93.5973,1007.14,1111122 
TABS,ioos:station:wmo:42047:1,2019-04-12T22:00:00Z,27.8966,-93.5973,1006.66,1111122 
TABS,ioos:station:wmo:42047:1,2019-04-12T23:00:00Z,27.8966,-93.5973,1006.51,1111122 
TABS,ioos:station:wmo:42047:1,2019-04-12T23:30:00Z,27.8966,-93.5973,1006.99,1111122 
TABS,ioos:station:wmo:42047:1,2019-04-13T05:00:00Z,27.8966,-93.5973,1006.19,1111122 
TABS,ioos:station:wmo:42047:1,2019-04-13T06:00:00Z,27.8966,-93.5973,1005.92,1111122 
TABS,ioos:station:wmo:42047:1,2019-04-13T07:00:00Z,27.8966,-93.5973,1005.52,1111122 
TABS,ioos:station:wmo:42047:1,2019-04-13T08:00:00Z,27.8966,-93.5973,1004.18,1111122 
TABS,ioos:station:wmo:42047:1,2019-04-13T09:00:00Z,27.8966,-93.5973,1003.25,1111122 
TABS,ioos:station:wmo:42047:1,2019-04-13T10:00:00Z,27.8966,-93.5973,1002.68,1111122 
TABS,ioos:station:wmo:42047:1,2019-04-13T11:00:00Z,27.8966,-93.5973,1003.27,1111122 
TABS,ioos:station:wmo:42047:1,2019-04-13T12:00:00Z,27.8966,-93.5973,1002.91,1111122 
TABS,ioos:station:wmo:42047:1,2019-04-13T13:00:00Z,27.8966,-93.5973,1002.85,1111122 
TABS,ioos:station:wmo:42047:1,2019-04-13T14:00:00Z,27.8966,-93.5973,1002.65,1111122 
TABS,ioos:station:wmo:42047:1,2019-04-13T15:00:00Z,27.8966,-93.5973,1003.24,1111122 
TABS,ioos:station:wmo:42047:1,2019-04-13T16:00:00Z,27.8966,-93.5973,1003.4,1111122 
TABS,ioos:station:wmo:42047:1,2019-04-13T17:00:00Z,27.8966,-93.5973,1003.4,1111122 
TABS,ioos:station:wmo:42047:1,2019-04-13T18:00:00Z,27.8966,-93.5973,1003.08,1111122 
TABS,ioos:station:wmo:42047:1,2019-04-13T19:00:00Z,27.8966,-93.5973,1002.96,1111122 
TABS,ioos:station:wmo:42047:1,2019-04-13T20:00:00Z,27.8966,-93.5973,1003.17,1111122 
TABS,ioos:station:wmo:42047:1,2019-04-13T21:00:00Z,27.8966,-93.5973,1002.7,1111122 
TABS,ioos:station:wmo:42047:1,2019-04-13T22:00:00Z,27.8966,-93.5973,1002.65,1111122 
TABS,ioos:station:wmo:42047:1,2019-04-13T23:00:00Z,27.8966,-93.5973,1003.33,1111122 
TABS,ioos:station:wmo:42047:1,2019-04-13T23:30:00Z,27.8966,-93.5973,1003.25,1111122 
TABS,ioos:station:wmo:42047:1,2019-04-14T04:00:00Z,27.8966,-93.5973,1007.5,1111122 
TABS,ioos:station:wmo:42047:1,2019-04-14T05:00:00Z,27.8966,-93.5973,1008.56,1111122 
TABS,ioos:station:wmo:42047:1,2019-04-14T06:00:00Z,27.8966,-93.5973,1009.08,1111122 
TABS,ioos:station:wmo:42047:1,2019-04-14T07:00:00Z,27.8966,-93.5973,1009.21,1111122 
TABS,ioos:station:wmo:42047:1,2019-04-14T08:00:00Z,27.8966,-93.5973,1009.44,1111122 
TABS,ioos:station:wmo:42047:1,2019-04-14T09:00:00Z,27.8966,-93.5973,1010.93,1111122 
TABS,ioos:station:wmo:42047:1,2019-04-14T10:00:00Z,27.8966,-93.5973,1011.04,1111122 
TABS,ioos:station:wmo:42047:1,2019-04-14T11:00:00Z,27.8966,-93.5973,1012.53,1111122 
TABS,ioos:station:wmo:42047:1,2019-04-14T12:00:00Z,27.8966,-93.5973,1013.3,1111122 
TABS,ioos:station:wmo:42047:1,2019-04-14T13:00:00Z,27.8966,-93.5973,1013.89,1111122 
TABS,ioos:station:wmo:42047:1,2019-04-14T14:00:00Z,27.8966,-93.5973,1014.43,1111122 
TABS,ioos:station:wmo:42047:1,2019-04-14T15:00:00Z,27.8966,-93.5973,1014.44,1111122 
TABS,ioos:station:wmo:42047:1,2019-04-14T16:00:00Z,27.8966,-93.5973,1015.66,1111122 
TABS,ioos:station:wmo:42047:1,2019-04-14T17:00:00Z,27.8966,-93.5973,1016.27,1111122 
TABS,ioos:station:wmo:42047:1,2019-04-14T18:30:00Z,27.8966,-93.5973,1016.48,1111122 